Simultaneous Nadir Overpasses (SNOs) Predictions

Prediction of SNOs between AURA and NPP Satellite Orbit:

Table of predicted SNOs for the next 14.0 days since TLE Epoch: 7/16/2022
Index Date (AURA) Time (AURA) Lat,Lon (AURA) SZA (AURA ) Date (NPP) Time (NPP) Lat,Lon (NPP) SZA (NPP ) Distance(km) Time Diff (sec)
1 07/17/2022 19:08:56 79.34, 148.55 72.16 07/17/2022 19:08:09 79.34, 148.59 72.18 0.96 47
2 07/17/2022 19:58:16 -79.61, -41.95 108.25 07/17/2022 19:58:46 -79.62, -41.80 108.30 3.19 30
3 07/20/2022 11:25:20 79.43, -94.97 72.51 07/20/2022 11:25:04 79.43, -94.94 72.52 0.67 16
4 07/20/2022 12:14:40 -79.70, 74.58 107.90 07/20/2022 12:15:41 -79.71, 74.71 107.97 2.81 61
5 07/23/2022 02:52:25 -79.24,-147.95 106.70 07/23/2022 02:51:23 -79.23,-148.02 106.64 1.56 62
6 07/23/2022 03:41:42 79.57, 21.93 72.81 07/23/2022 03:41:57 79.58, 22.06 72.78 2.79 15
7 07/25/2022 19:08:45 -79.41, -30.94 106.40 07/25/2022 19:08:14 -79.42, -30.81 106.40 2.82 31
8 07/25/2022 19:58:05 79.62, 138.19 73.30 07/25/2022 19:58:52 79.63, 138.23 73.25 1.02 47
9 07/28/2022 10:37:14 75.28,-100.10 79.40 07/28/2022 10:36:01 75.49,-101.48 79.62 45.31 73



Historial Predications of SNOs between AURA and NPP
